This is the latest recevied weather packets stored in our database for station/object EA7OC-10. If no packets are shown the sender has not sent any weather packets the latest 10 day(s).
| Time | Temp. | Humidity | Pressure | Rain* | Wind** | Luminosity | Snow |
|---|---|---|---|---|---|---|---|
| 1777743662 | 28.89° C | 32% | 1015.5 hPa | - | - | - | - |
| 1777742758 | 29.44° C | 32% | 1015.5 hPa | - | - | - | - |
| 1777741858 | 30.56° C | 32% | 1015.5 hPa | - | - | - | - |
| 1777740958 | 32.22° C | 32% | 1015.5 hPa | - | - | - | - |
| 1777740058 | 31.11° C | 33% | 1015.7 hPa | - | - | - | - |
| 1777739157 | 31.67° C | 33% | 1015.6 hPa | - | - | - | - |
| 1777738257 | 30° C | 33% | 1015.7 hPa | - | - | - | - |
| 1777737357 | 29.44° C | 33% | 1015.7 hPa | - | - | - | - |
| 1777736457 | 29.44° C | 32% | 1015.8 hPa | - | - | - | - |
| 1777735554 | 29.44° C | 32% | 1015.8 hPa | - | - | - | - |
| 1777734654 | 30.56° C | 33% | 1016 hPa | - | - | - | - |
| 1777733753 | 30.56° C | 32% | 1016.1 hPa | - | - | - | - |
| 1777732853 | 30° C | 33% | 1016.4 hPa | - | - | - | - |
| 1777731953 | 30.56° C | 32% | 1016.6 hPa | - | - | - | - |
| 1777731053 | 31.67° C | 32% | 1016.8 hPa | - | - | - | - |
| 1777730153 | 32.22° C | 33% | 1017 hPa | - | - | - | - |
| 1777729252 | 31.11° C | 33% | 1017.3 hPa | - | - | - | - |
| 1777728351 | 31.11° C | 33% | 1017.3 hPa | - | - | - | - |
| 1777727451 | 31.67° C | 33% | 1017.5 hPa | - | - | - | - |
| 1777726551 | 30.56° C | 33% | 1017.5 hPa | - | - | - | - |
| 1777725647 | 30° C | 33% | 1017.7 hPa | - | - | - | - |
| 1777724745 | 30.56° C | 32% | 1017.8 hPa | - | - | - | - |
| 1777723845 | 32.22° C | 33% | 1018 hPa | - | - | - | - |
| 1777722945 | 32.78° C | 33% | 1018.2 hPa | - | - | - | - |
| 1777722045 | 32.22° C | 33% | 1018.1 hPa | - | - | - | - |
* Rain since midnight (hover to see other rain measurements)
** Current wind speed in m/s (hover to see current wind gust speed)